Location: Unspecified
(51.3762°N, 0.0000°E)
Time: 09:23:20
(UTC+00:00)

O/OREOS (USA 219) - Pass Details

Date: 29 July 2019
Orbit: 621 x 646 km, 72.0° (Epoch: 22 May)

Event Time Altitude Azimuth Distance (km) Brightness Sun altitude
Exits shadow 03:04:39 13° 212° (SSW) 1,855 ? -9.7°
Maximum altitude 03:08:46 78° 299° (WNW) 656 ? -9.3°
Drops below altitude 10° 03:13:20 10° 26° (NNE) 2,026 ? -8.8°
Sets 03:15:36 0° 28° (NNE) 2,934 ? -8.6°
